Regional Weather Roundup
Issued by NWS

Home | Current Version | Previous Version | Graphics & Text | Print | Product List | Glossary On
Versions: 1 2 3 4 5 6 7 8 9 10 11 12 13 14 15 16 17 18 19 20 21 22 23 24 25 26 27 28 29 30 31 32 33 34 35 36 37 38 39 40 41 42 43 44 45 46 47 48 49 50
000
ASUS44 KEWX 060211
RWRTX
SOUTH TEXAS REGIONAL WEATHER ROUNDUP
NATIONAL WEATHER SERVICE AUSTIN/SAN ANTONIO TX
900 PM CDT TUE MAY 05 2015

NOTE: "FAIR" INDICATED FEW OR NO CLOUDS BELOW 12,000 FEET WITH NO
SIGNIFICANT WEATHER AND/OR OBSTRUCTIONS TO VISIBILITY.

* - THESE STATIONS ARE NOT NWS OR FAA STATIONS...AND ARE NOT SUBJECT
    TO NWS AND FAA QUALITY CONTROL.

TXZ171-172-183>190-060300-
TEXAS HILL COUNTRY AND EDWARDS PLATEAU

CITY           SKY/WX    TMP DP  RH WIND       PRES   REMARKS
JUNCTION       CLOUDY    69  65  86 SE8       29.91R
*LLANO         CLOUDY    70  66  88 CALM      29.96R
BURNET         LGT RAIN  69  65  86 SE7       29.95R
*HORSESHOE BAY CLOUDY    68  66  94 SE6       29.92R
*KERRVILLE     RAIN      69  67  95 SE10      29.93R
*FREDERICKSBRG DRIZZLE   68  66  92 S9        29.94R
*ROCKSPRINGS   CLOUDY    66  66 100 SE8       29.95R FOG
*BOERNE STAGE  CLOUDY    68  66  94 S10G21    29.94R
*CASTROVILLE   CLOUDY    73  69  89 SE9       29.92R
HONDO          CLOUDY    72  69  90 SE12      29.91R
*UVALDE        CLOUDY    71  70  96 E8        29.90R
DEL RIO        MOCLDY    73  68  84 E8        29.83R
LAUGHLIN AFB   PTCLDY    72  69  90 E12       29.84R
CARRIZO SPRGS  CLOUDY    73  70  88 SE7       29.83R
$$

TXZ173-191>194-202-209-217>225-228-060300-
CENTRAL AND SOUTH CENTRAL TEXAS

CITY           SKY/WX    TMP DP  RH WIND       PRES   REMARKS
GEORGETOWN     CLOUDY    72  66  83 S10G18    29.93R
AUSTIN/BERGSTM LGT RAIN  74  68  81 S14       29.91R
AUSTIN/MABRY   HVY RAIN  69  69 100 VRB5      29.95R VSB 1/2
*AUSTIN/EXEC   LGT RAIN  70  70 100 E9        29.94S
*LAGO VISTA    RAIN      69  67  94 SE12G21   29.95R
SAN MARCOS     CLOUDY    73  66  78 S17       29.92R
NEW BRAUNFELS  LGT RAIN  72  69  90 S12       29.90R FOG
RANDOLPH AFB   CLOUDY    72  70  94 SE10      29.91R
PT SAN ANTONIO CLOUDY    73  68  83 SE12      29.89R
SAN ANTONIO    CLOUDY    73  70  90 SE10      29.91R
STINSON FIELD  LGT RAIN  73  69  87 SE12G21   29.88R
*PLEASANTON    RAIN      73  69  87 SE12G18   29.88R
*LA GRANGE     CLOUDY    77  68  74 SE10G18   29.92R
*GIDDINGS      CLOUDY    75  66  72 SE12G21   29.97S
*GONZALES      DRIZZLE   76  72  86 SE16G22   29.90R
$$

TXZ163>164-176>182-195>201-210>213-226-227-235-060300-
SOUTHEAST TEXAS

CITY           SKY/WX    TMP DP  RH WIND       PRES   REMARKS
COLLEGE STN    CLOUDY    75  67  76 SE13      29.95R
*BRYAN         CLOUDY    73  70  91 SE10      29.96S
*CALDWELL      CLOUDY    73  70  88 SE14G22   29.97R
*CROCKETT      NOT AVBL
*BRENHAM       CLOUDY    77  68  74 SE10G20   29.96R
HUNTSVILLE     PTCLDY    74  66  76 SE7       29.98S
CONROE         CLOUDY    74  65  73 SE12      30.00R
HOUSTON BUSH   MOCLDY    75  68  78 SE17      30.00R
HOUSTON HOBBY  MOCLDY    76  68  76 SE10      29.99R
*HOUSTON SW AP CLOUDY    80  76  87 E10G16    30.00R
PEARLAND       CLOUDY    77  68  73 SE16      30.02R
HOUSTON HOOKS  MOCLDY    75  67  76 SE13G24   29.99R
ELLINGTON FLD  NOT AVBL
SUGAR LAND     CLOUDY    76  68  76 SE13      29.98R
*HOUSTON EXEC  MOCLDY    73  68  83 SE14G20   29.99R
*CLEVELAND MUN MOCLDY    71  68  88 SE3       30.02R
*WHARTON       MOCLDY    75  69  82 SE10      29.97R
*COLUMBUS      MOCLDY    74  69  86 SE10      29.95R
$$

TXZ214>216-236>238-060300-
THE UPPER TEXAS COAST

CITY           SKY/WX    TMP DP  RH WIND       PRES   REMARKS
*ORANGE        CLEAR     74  65  73 SE10      30.05R
PORT ARTHUR    PTCLDY    75  68  78 SE17G24   30.02R
GALVESTON      PTCLDY    76  71  85 SE17      30.01R
ANGLETON       CLOUDY    74  71  91 SE12      29.98R
*BAY CITY      CLOUDY    75  73  92 SE10G18   29.96R
PALACIOS       CLOUDY    77  72  84 SE17      29.94S
$$

TXZ229>234-239>247-060300-
TEXAS COASTAL BEND AND RIO GRANDE PLAINS

CITY           SKY/WX    TMP DP  RH WIND       PRES   REMARKS
VICTORIA       LGT RAIN  75  72  90 SE15G24   29.92S
*BEEVILLE      CLOUDY    75  74  99 SE13G20   29.90R
ROCKPORT       CLOUDY    78  72  81 SE21      29.91R
*PORT ARANSAS  CLOUDY    76  73  92 SE15G22   29.91R
*PORT LAVACA   CLOUDY    75  72  88 SE15G24   29.94R
*INGLESIDE     CLOUDY    78  73  86 SE16G29   29.90R
CORPUS CHRISTI MOCLDY    77  72  84 SE21      29.90R
CORPUS NAS     CLOUDY    77  73  87 SE20      29.90R
*ROBSTOWN      CLOUDY    78  73  84 SE14G23   29.90R
ALICE          CLOUDY    77  72  84 SE15      29.87R
KINGSVILLE NAS CLOUDY    78  75  90 SE13G24   29.89R
COTULLA        CLOUDY    77  69  76 SE14      29.85R
*FAITH RANCH   MOCLDY    77  72  83 E8        29.83R
LAREDO         MOCLDY    77  71  81 SE14      29.85R
$$

TXZ248>255-060300-
DEEP SOUTH TEXAS

CITY           SKY/WX    TMP DP  RH WIND       PRES   REMARKS
BROWNSVILLE    CLOUDY    78  73  84 SE17      29.89R
PORT ISABEL    CLOUDY    78  72  81 SE17G25   29.88R
*SOUTH PADRE   CLOUDY    77  75  94 SW17      29.89R
HARLINGEN      MOCLDY    78  72  81 SE16      29.88R
*HEBBRONVILLE    N/A     76  70  81 SE10G16   29.88R
MCALLEN        MOCLDY    80  70  71 SE17G26   29.87R
*WESLACO       MOCLDY    78  70  76 SE10G18   29.87R
FALFURRIAS     PTCLDY    77  71  81 SE10      29.87R
EDINBURG       CLOUDY    79  69  70 SE12      29.87R
*ZAPATA        CLOUDY    79  69  71 MISG      29.83R
$$

TXZ213>215-236>238-242>244-246-247-251-254-255-060300-
CMAN STATIONS

STATION/POSITION TIME  TEMP    WIND        PRES    WAVE
                       AIR SEA DIR/SP/G            HT/PER
                 (UTC) (F)     (DEG/KT/KT) (MB)    (FT/S)
$$

GMZ080-GMZ150>470-060300-
OFFSHORE BUOY REPORTS

STATION/POSITION TIME  TEMP    WIND        PRES    WAVE
                       AIR SEA DIR/SP/G            HT/PER
                 (UTC) (F)     (DEG/KT/KT) (MB)    (FT/S)
$$


USA.gov is the U.S. government's official web portal to all federal, state and local government web resources and services.